PRIVATE WETTERSTATION BILLIGHEIM-ALLFELD                       ZURCK
Wetterdaten: Dienstag, 06.05.2014
Datum Zeit Temp. A. Temp. A. min Temp. A. max Feuchte A. Luftdruck Regen Wind Richtung Richtung Sonnenschein ET Solar Taupunkt Windchill Windben Empfang
06.05.2014 00:00 9,2 C 9,2 C 9,3 C 77 % 1014,0 hPa 0,0 l/m 0,0 km/h (0 Bft) N-NW 337 0 min 0,025 mm 0 W/m 5,4 C 9,2 C 4,8 km/h (1 Bft) 100 %
06.05.2014 00:10 9,0 C 9,0 C 9,2 C 78 % 1013,8 hPa 0,0 l/m 0,0 km/h (0 Bft) N-NW 337 0 min 0,000 mm 0 W/m 5,4 C 9,0 C 1,6 km/h (1 Bft) 100 %
06.05.2014 00:20 8,7 C 8,7 C 9,0 C 79 % 1013,8 hPa 0,0 l/m 0,0 km/h (0 Bft) N-NW 337 0 min 0,000 mm 0 W/m 5,3 C 8,7 C 3,2 km/h (1 Bft) 100 %
06.05.2014 00:30 8,4 C 8,4 C 8,7 C 80 % 1013,7 hPa 0,0 l/m 0,0 km/h (0 Bft) NW 315 0 min 0,000 mm 0 W/m 5,2 C 8,4 C 4,8 km/h (1 Bft) 100 %
06.05.2014 00:40 8,2 C 8,2 C 8,4 C 81 % 1013,8 hPa 0,0 l/m 1,6 km/h (1 Bft) NW 315 0 min 0,000 mm 0 W/m 5,1 C 8,2 C 4,8 km/h (1 Bft) 88 %
06.05.2014 00:50 8,0 C 8,0 C 8,2 C 82 % 1013,7 hPa 0,0 l/m 0,0 km/h (0 Bft) NW 315 0 min 0,000 mm 0 W/m 5,1 C 8,0 C 3,2 km/h (1 Bft) 98 %
06.05.2014 01:00 7,8 C 7,8 C 8,0 C 82 % 1013,5 hPa 0,0 l/m 0,0 km/h (0 Bft) NW 315 0 min 0,025 mm 0 W/m 4,9 C 7,8 C 4,8 km/h (1 Bft) 98 %
06.05.2014 01:10 7,7 C 7,7 C 7,8 C 83 % 1013,4 hPa 0,0 l/m 1,6 km/h (1 Bft) NW 315 0 min 0,000 mm 0 W/m 5,0 C 7,7 C 6,4 km/h (2 Bft) 98 %
06.05.2014 01:20 7,6 C 7,6 C 7,7 C 82 % 1013,3 hPa 0,0 l/m 0,0 km/h (0 Bft) NW 315 0 min 0,000 mm 0 W/m 4,7 C 7,6 C 3,2 km/h (1 Bft) 98 %
06.05.2014 01:30 7,6 C 7,6 C 7,6 C 82 % 1013,3 hPa 0,0 l/m 0,0 km/h (0 Bft) NW 315 0 min 0,000 mm 0 W/m 4,7 C 7,6 C 3,2 km/h (1 Bft) 97 %
06.05.2014 01:40 7,7 C 7,6 C 7,7 C 81 % 1013,1 hPa 0,0 l/m 0,0 km/h (0 Bft) NW 315 0 min 0,000 mm 0 W/m 4,7 C 7,7 C 3,2 km/h (1 Bft) 97 %
06.05.2014 01:50 7,7 C 7,7 C 7,7 C 81 % 1013,0 hPa 0,0 l/m 1,6 km/h (1 Bft) NW 315 0 min 0,000 mm 0 W/m 4,7 C 7,7 C 4,8 km/h (1 Bft) 98 %
06.05.2014 02:00 7,7 C 7,7 C 7,7 C 81 % 1012,9 hPa 0,0 l/m 0,0 km/h (0 Bft) NW 315 0 min 0,000 mm 0 W/m 4,7 C 7,7 C 1,6 km/h (1 Bft) 98 %
06.05.2014 02:10 7,6 C 7,6 C 7,7 C 82 % 1012,9 hPa 0,0 l/m 0,0 km/h (0 Bft) NW 315 0 min 0,000 mm 0 W/m 4,7 C 7,6 C 3,2 km/h (1 Bft) 97 %
06.05.2014 02:20 7,4 C 7,4 C 7,6 C 82 % 1012,9 hPa 0,0 l/m 1,6 km/h (1 Bft) NW 315 0 min 0,000 mm 0 W/m 4,5 C 7,4 C 4,8 km/h (1 Bft) 98 %
06.05.2014 02:30 7,3 C 7,3 C 7,4 C 82 % 1012,8 hPa 0,0 l/m 0,0 km/h (0 Bft) NW 315 0 min 0,000 mm 0 W/m 4,4 C 7,3 C 4,8 km/h (1 Bft) 97 %
06.05.2014 02:40 7,2 C 7,2 C 7,3 C 83 % 1012,8 hPa 0,0 l/m 0,0 km/h (0 Bft) NW 315 0 min 0,000 mm 0 W/m 4,5 C 7,2 C 3,2 km/h (1 Bft) 97 %
06.05.2014 02:50 7,1 C 7,1 C 7,2 C 83 % 1012,7 hPa 0,0 l/m 0,0 km/h (0 Bft) NW 315 0 min 0,000 mm 0 W/m 4,4 C 7,1 C 3,2 km/h (1 Bft) 97 %
06.05.2014 03:00 7,1 C 7,1 C 7,1 C 83 % 1012,7 hPa 0,0 l/m 0,0 km/h (0 Bft) NW 315 0 min 0,000 mm 0 W/m 4,4 C 7,1 C 3,2 km/h (1 Bft) 96 %
06.05.2014 03:10 6,9 C 6,9 C 7,1 C 83 % 1012,8 hPa 0,0 l/m 0,0 km/h (0 Bft) NW 315 0 min 0,000 mm 0 W/m 4,2 C 6,9 C 3,2 km/h (1 Bft) 90 %
06.05.2014 03:20 6,8 C 6,8 C 6,9 C 84 % 1013,0 hPa 0,0 l/m 1,6 km/h (1 Bft) NW 315 0 min 0,000 mm 0 W/m 4,3 C 6,8 C 6,4 km/h (2 Bft) 98 %
06.05.2014 03:30 6,6 C 6,6 C 6,8 C 84 % 1013,0 hPa 0,0 l/m 0,0 km/h (0 Bft) N 360 0 min 0,000 mm 0 W/m 4,1 C 6,6 C 6,4 km/h (2 Bft) 97 %
06.05.2014 03:40 6,5 C 6,5 C 6,6 C 84 % 1013,1 hPa 0,0 l/m 0,0 km/h (0 Bft) N 360 0 min 0,000 mm 0 W/m 4,0 C 6,5 C 3,2 km/h (1 Bft) 97 %
06.05.2014 03:50 6,3 C 6,3 C 6,5 C 84 % 1013,0 hPa 0,0 l/m 0,0 km/h (0 Bft) N 360 0 min 0,000 mm 0 W/m 3,8 C 6,3 C 1,6 km/h (1 Bft) 98 %
06.05.2014 04:00 6,1 C 6,1 C 6,3 C 85 % 1012,9 hPa 0,0 l/m 0,0 km/h (0 Bft) N 360 0 min 0,000 mm 0 W/m 3,8 C 6,1 C 1,6 km/h (1 Bft) 97 %
06.05.2014 04:10 5,9 C 5,9 C 6,1 C 85 % 1012,8 hPa 0,0 l/m 0,0 km/h (0 Bft) N 0 0 min 0,000 mm 0 W/m 3,6 C 5,9 C 0,0 km/h (0 Bft) 98 %
06.05.2014 04:20 5,7 C 5,7 C 5,9 C 86 % 1012,6 hPa 0,0 l/m 0,0 km/h (0 Bft) N 360 0 min 0,000 mm 0 W/m 3,5 C 5,7 C 1,6 km/h (1 Bft) 97 %
06.05.2014 04:30 5,5 C 5,5 C 5,7 C 86 % 1012,5 hPa 0,0 l/m 0,0 km/h (0 Bft) N 360 0 min 0,000 mm 0 W/m 3,3 C 5,5 C 1,6 km/h (1 Bft) 98 %
06.05.2014 04:40 5,3 C 5,3 C 5,5 C 86 % 1012,5 hPa 0,0 l/m 0,0 km/h (0 Bft) N 360 0 min 0,000 mm 0 W/m 3,2 C 5,3 C 3,2 km/h (1 Bft) 98 %
06.05.2014 04:50 5,2 C 5,2 C 5,3 C 86 % 1012,4 hPa 0,0 l/m 0,0 km/h (0 Bft) N 360 0 min 0,000 mm 0 W/m 3,1 C 5,2 C 1,6 km/h (1 Bft) 98 %
06.05.2014 05:00 5,0 C 5,0 C 5,1 C 87 % 1012,4 hPa 0,0 l/m 1,6 km/h (1 Bft) N 360 0 min 0,000 mm 0 W/m 3,0 C 5,0 C 4,8 km/h (1 Bft) 97 %
06.05.2014 05:10 4,8 C 4,8 C 5,0 C 87 % 1012,5 hPa 0,0 l/m 0,0 km/h (0 Bft) N 360 0 min 0,000 mm 0 W/m 2,8 C 4,8 C 1,6 km/h (1 Bft) 97 %
06.05.2014 05:20 4,7 C 4,7 C 4,8 C 87 % 1012,6 hPa 0,0 l/m 0,0 km/h (0 Bft) N 360 0 min 0,000 mm 0 W/m 2,7 C 4,7 C 3,2 km/h (1 Bft) 98 %
06.05.2014 05:30 4,6 C 4,6 C 4,7 C 87 % 1012,5 hPa 0,0 l/m 0,0 km/h (0 Bft) N 0 0 min 0,000 mm 0 W/m 2,6 C 4,6 C 0,0 km/h (0 Bft) 97 %
06.05.2014 05:40 4,5 C 4,5 C 4,6 C 87 % 1012,5 hPa 0,0 l/m 0,0 km/h (0 Bft) N 0 0 min 0,000 mm 0 W/m 2,5 C 4,5 C 0,0 km/h (0 Bft) 98 %
06.05.2014 05:50 4,4 C 4,4 C 4,5 C 87 % 1012,5 hPa 0,0 l/m 0,0 km/h (0 Bft) N 360 0 min 0,000 mm 0 W/m 2,4 C 4,4 C 1,6 km/h (1 Bft) 98 %
06.05.2014 06:00 4,4 C 4,4 C 4,4 C 87 % 1012,5 hPa 0,0 l/m 0,0 km/h (0 Bft) N 360 0 min 0,000 mm 0 W/m 2,4 C 4,4 C 3,2 km/h (1 Bft) 98 %
06.05.2014 06:10 4,3 C 4,3 C 4,4 C 87 % 1012,4 hPa 0,0 l/m 0,0 km/h (0 Bft) N 360 0 min 0,000 mm 11 W/m 2,3 C 4,3 C 3,2 km/h (1 Bft) 98 %
06.05.2014 06:20 4,3 C 4,3 C 4,3 C 87 % 1012,4 hPa 0,0 l/m 0,0 km/h (0 Bft) N 360 0 min 0,000 mm 18 W/m 2,3 C 4,3 C 3,2 km/h (1 Bft) 97 %
06.05.2014 06:30 4,3 C 4,3 C 4,3 C 87 % 1012,5 hPa 0,0 l/m 1,6 km/h (1 Bft) N 360 0 min 0,000 mm 25 W/m 2,3 C 4,3 C 4,8 km/h (1 Bft) 98 %
06.05.2014 06:40 4,3 C 4,3 C 4,3 C 87 % 1012,5 hPa 0,0 l/m 0,0 km/h (0 Bft) N 360 0 min 0,000 mm 32 W/m 2,3 C 4,3 C 1,6 km/h (1 Bft) 97 %
06.05.2014 06:50 4,4 C 4,3 C 4,4 C 87 % 1012,5 hPa 0,0 l/m 0,0 km/h (0 Bft) N 360 0 min 0,000 mm 42 W/m 2,4 C 4,4 C 4,8 km/h (1 Bft) 98 %
06.05.2014 07:00 4,6 C 4,4 C 4,6 C 87 % 1012,5 hPa 0,0 l/m 0,0 km/h (0 Bft) N 360 0 min 0,000 mm 53 W/m 2,6 C 4,6 C 3,2 km/h (1 Bft) 87 %
06.05.2014 07:10 4,8 C 4,6 C 4,8 C 87 % 1012,6 hPa 0,0 l/m 0,0 km/h (0 Bft) N 360 0 min 0,000 mm 62 W/m 2,8 C 4,8 C 1,6 km/h (1 Bft) 98 %
06.05.2014 07:20 5,1 C 4,8 C 5,1 C 87 % 1012,6 hPa 0,0 l/m 0,0 km/h (0 Bft) N 360 0 min 0,000 mm 67 W/m 3,1 C 5,1 C 3,2 km/h (1 Bft) 98 %
06.05.2014 07:30 5,5 C 5,1 C 5,5 C 87 % 1012,5 hPa 0,0 l/m 0,0 km/h (0 Bft) N 360 0 min 0,000 mm 74 W/m 3,5 C 5,5 C 4,8 km/h (1 Bft) 98 %
06.05.2014 07:40 5,9 C 5,6 C 5,9 C 87 % 1012,5 hPa 0,0 l/m 1,6 km/h (1 Bft) N-NW 337 0 min 0,000 mm 79 W/m 3,9 C 5,9 C 4,8 km/h (1 Bft) 99 %
06.05.2014 07:50 6,3 C 5,9 C 6,3 C 87 % 1012,4 hPa 0,0 l/m 0,0 km/h (0 Bft) N-NW 337 0 min 0,000 mm 84 W/m 4,3 C 6,3 C 1,6 km/h (1 Bft) 98 %
06.05.2014 08:00 6,6 C 6,3 C 6,6 C 87 % 1012,4 hPa 0,0 l/m 0,0 km/h (0 Bft) N-NW 337 0 min 0,025 mm 90 W/m 4,6 C 6,6 C 3,2 km/h (1 Bft) 100 %
06.05.2014 08:10 7,0 C 6,6 C 7,0 C 87 % 1012,5 hPa 0,0 l/m 0,0 km/h (0 Bft) N-NW 337 0 min 0,000 mm 107 W/m 5,0 C 7,0 C 3,2 km/h (1 Bft) 100 %
06.05.2014 08:20 7,4 C 7,0 C 7,4 C 87 % 1012,5 hPa 0,0 l/m 0,0 km/h (0 Bft) N-NW 337 0 min 0,000 mm 137 W/m 5,4 C 7,4 C 1,6 km/h (1 Bft) 99 %
06.05.2014 08:30 8,0 C 7,4 C 8,0 C 87 % 1012,5 hPa 0,0 l/m 0,0 km/h (0 Bft) N-NW 337 10 min 0,000 mm 236 W/m 6,0 C 8,0 C 3,2 km/h (1 Bft) 100 %
06.05.2014 08:40 8,7 C 8,0 C 8,7 C 87 % 1012,5 hPa 0,0 l/m 0,0 km/h (0 Bft) N-NW 337 10 min 0,000 mm 232 W/m 6,7 C 8,7 C 3,2 km/h (1 Bft) 100 %
06.05.2014 08:50 9,4 C 8,7 C 9,4 C 86 % 1012,7 hPa 0,0 l/m 0,0 km/h (0 Bft) N-NW 337 10 min 0,000 mm 336 W/m 7,2 C 9,4 C 3,2 km/h (1 Bft) 100 %
06.05.2014 09:00 10,2 C 9,4 C 10,2 C 82 % 1012,5 hPa 0,0 l/m 0,0 km/h (0 Bft) N-NW 337 10 min 0,102 mm 360 W/m 7,3 C 10,2 C 3,2 km/h (1 Bft) 100 %
06.05.2014 09:10 11,4 C 10,2 C 11,4 C 76 % 1012,5 hPa 0,0 l/m 1,6 km/h (1 Bft) O-NO 67 10 min 0,000 mm 439 W/m 7,3 C 11,4 C 4,8 km/h (1 Bft) 99 %
06.05.2014 09:20 12,9 C 11,4 C 12,9 C 71 % 1012,4 hPa 0,0 l/m 1,6 km/h (1 Bft) S-SO 157 10 min 0,000 mm 499 W/m 7,8 C 12,9 C 6,4 km/h (2 Bft) 100 %
06.05.2014 09:30 14,0 C 12,9 C 14,0 C 70 % 1012,3 hPa 0,0 l/m 1,6 km/h (1 Bft) S-SO 157 10 min 0,000 mm 541 W/m 8,6 C 14,0 C 11,3 km/h (2 Bft) 100 %
06.05.2014 09:40 14,9 C 14,0 C 14,9 C 66 % 1012,4 hPa 0,0 l/m 3,2 km/h (1 Bft) S 180 10 min 0,000 mm 563 W/m 8,6 C 14,9 C 11,3 km/h (2 Bft) 100 %
06.05.2014 09:50 15,3 C 14,9 C 15,3 C 62 % 1012,3 hPa 0,0 l/m 3,2 km/h (1 Bft) S-SO 157 10 min 0,000 mm 594 W/m 8,1 C 15,3 C 11,3 km/h (2 Bft) 100 %
06.05.2014 10:00 15,3 C 15,1 C 15,3 C 66 % 1012,3 hPa 0,0 l/m 3,2 km/h (1 Bft) S-SW 202 10 min 0,254 mm 645 W/m 9,0 C 15,3 C 11,3 km/h (2 Bft) 100 %
06.05.2014 10:10 15,7 C 15,4 C 15,7 C 62 % 1012,4 hPa 0,0 l/m 3,2 km/h (1 Bft) S-SW 202 10 min 0,000 mm 466 W/m 8,4 C 15,7 C 11,3 km/h (2 Bft) 100 %
06.05.2014 10:20 15,6 C 15,5 C 15,7 C 66 % 1012,5 hPa 0,0 l/m 1,6 km/h (1 Bft) S 180 10 min 0,000 mm 378 W/m 9,3 C 15,6 C 8,0 km/h (2 Bft) 100 %
06.05.2014 10:30 15,9 C 15,6 C 15,9 C 64 % 1012,4 hPa 0,0 l/m 0,0 km/h (0 Bft) S 180 10 min 0,000 mm 476 W/m 9,1 C 15,9 C 6,4 km/h (2 Bft) 100 %
06.05.2014 10:40 16,4 C 15,9 C 16,4 C 64 % 1012,4 hPa 0,0 l/m 1,6 km/h (1 Bft) SW 225 10 min 0,000 mm 540 W/m 9,6 C 16,4 C 8,0 km/h (2 Bft) 100 %
06.05.2014 10:50 16,6 C 16,4 C 16,8 C 60 % 1012,5 hPa 0,0 l/m 3,2 km/h (1 Bft) S-SW 202 10 min 0,000 mm 531 W/m 8,8 C 16,6 C 11,3 km/h (2 Bft) 100 %
06.05.2014 11:00 16,2 C 16,1 C 16,6 C 66 % 1012,6 hPa 0,0 l/m 1,6 km/h (1 Bft) S-SO 157 10 min 0,229 mm 719 W/m 9,8 C 16,2 C 8,0 km/h (2 Bft) 100 %
06.05.2014 11:10 17,1 C 16,2 C 17,1 C 66 % 1012,5 hPa 0,0 l/m 0,0 km/h (0 Bft) SW 225 10 min 0,000 mm 745 W/m 10,7 C 17,1 C 6,4 km/h (2 Bft) 100 %
06.05.2014 11:20 17,7 C 17,1 C 17,7 C 58 % 1012,5 hPa 0,0 l/m 1,6 km/h (1 Bft) SW 225 10 min 0,000 mm 628 W/m 9,3 C 17,7 C 6,4 km/h (2 Bft) 99 %
06.05.2014 11:30 18,2 C 17,7 C 18,2 C 56 % 1012,6 hPa 0,0 l/m 1,6 km/h (1 Bft) W-SW 247 10 min 0,000 mm 788 W/m 9,3 C 18,2 C 8,0 km/h (2 Bft) 100 %
06.05.2014 11:40 18,7 C 18,2 C 18,7 C 54 % 1012,6 hPa 0,0 l/m 3,2 km/h (1 Bft) S-SW 202 10 min 0,000 mm 742 W/m 9,2 C 18,7 C 17,7 km/h (3 Bft) 100 %
06.05.2014 11:50 19,2 C 18,7 C 19,2 C 55 % 1012,4 hPa 0,0 l/m 3,2 km/h (1 Bft) SW 225 10 min 0,000 mm 831 W/m 9,9 C 19,2 C 9,7 km/h (2 Bft) 100 %
06.05.2014 12:00 19,5 C 19,2 C 19,5 C 55 % 1012,4 hPa 0,0 l/m 3,2 km/h (1 Bft) S-SW 202 10 min 0,381 mm 902 W/m 10,2 C 19,5 C 14,5 km/h (3 Bft) 100 %
06.05.2014 12:10 20,0 C 19,5 C 20,0 C 53 % 1012,4 hPa 0,0 l/m 3,2 km/h (1 Bft) SW 225 10 min 0,000 mm 921 W/m 10,1 C 20,0 C 11,3 km/h (2 Bft) 100 %
06.05.2014 12:20 20,2 C 20,0 C 20,2 C 53 % 1012,4 hPa 0,0 l/m 3,2 km/h (1 Bft) SW 225 10 min 0,000 mm 701 W/m 10,3 C 20,2 C 14,5 km/h (3 Bft) 100 %
06.05.2014 12:30 20,4 C 20,2 C 20,4 C 49 % 1012,3 hPa 0,0 l/m 8,0 km/h (2 Bft) SW 225 10 min 0,000 mm 749 W/m 9,3 C 19,8 C 19,3 km/h (3 Bft) 99 %
06.05.2014 12:40 20,9 C 20,4 C 20,9 C 49 % 1012,2 hPa 0,0 l/m 6,4 km/h (2 Bft) W-SW 247 10 min 0,000 mm 884 W/m 9,8 C 20,9 C 20,9 km/h (4 Bft) 100 %
06.05.2014 12:50 20,8 C 20,8 C 21,1 C 48 % 1012,1 hPa 0,0 l/m 12,9 km/h (3 Bft) SW 225 10 min 0,000 mm 791 W/m 9,4 C 18,7 C 32,2 km/h (5 Bft) 99 %
06.05.2014 13:00 20,2 C 20,2 C 20,8 C 48 % 1012,1 hPa 0,0 l/m 11,3 km/h (2 Bft) SW 225 10 min 0,406 mm 404 W/m 8,8 C 18,5 C 25,7 km/h (4 Bft) 99 %
06.05.2014 13:10 19,9 C 19,9 C 20,2 C 47 % 1012,1 hPa 0,0 l/m 11,3 km/h (2 Bft) SW 225 10 min 0,000 mm 536 W/m 8,3 C 18,1 C 24,1 km/h (4 Bft) 98 %
06.05.2014 13:20 20,0 C 19,9 C 20,1 C 47 % 1012,1 hPa 0,0 l/m 11,3 km/h (2 Bft) W 270 10 min 0,000 mm 483 W/m 8,3 C 18,2 C 25,7 km/h (4 Bft) 99 %
06.05.2014 13:30 19,9 C 19,9 C 20,0 C 47 % 1012,0 hPa 0,0 l/m 11,3 km/h (2 Bft) W 270 10 min 0,000 mm 492 W/m 8,3 C 18,1 C 29,0 km/h (5 Bft) 99 %
06.05.2014 13:40 19,8 C 19,8 C 19,9 C 48 % 1012,1 hPa 0,0 l/m 11,3 km/h (2 Bft) W-SW 247 10 min 0,000 mm 570 W/m 8,5 C 18,0 C 29,0 km/h (5 Bft) 98 %
06.05.2014 13:50 20,0 C 19,8 C 20,0 C 47 % 1012,1 hPa 0,0 l/m 9,7 km/h (2 Bft) SW 225 10 min 0,000 mm 635 W/m 8,3 C 18,7 C 24,1 km/h (4 Bft) 100 %
06.05.2014 14:00 20,1 C 20,0 C 20,1 C 47 % 1012,2 hPa 0,0 l/m 11,3 km/h (2 Bft) W-SW 247 10 min 0,381 mm 594 W/m 8,4 C 18,3 C 27,4 km/h (4 Bft) 100 %
06.05.2014 14:10 20,2 C 20,1 C 20,3 C 46 % 1012,3 hPa 0,0 l/m 14,5 km/h (3 Bft) W-SW 247 10 min 0,000 mm 568 W/m 8,2 C 17,6 C 29,0 km/h (5 Bft) 100 %
06.05.2014 14:20 20,2 C 20,2 C 20,3 C 46 % 1012,0 hPa 0,0 l/m 12,9 km/h (3 Bft) W-SW 247 10 min 0,000 mm 592 W/m 8,2 C 18,0 C 29,0 km/h (5 Bft) 100 %
06.05.2014 14:30 20,1 C 20,1 C 20,2 C 47 % 1012,1 hPa 0,0 l/m 16,1 km/h (3 Bft) SW 225 10 min 0,000 mm 612 W/m 8,4 C 17,1 C 29,0 km/h (5 Bft) 100 %
06.05.2014 14:40 19,9 C 19,9 C 20,1 C 47 % 1012,1 hPa 0,0 l/m 12,9 km/h (3 Bft) SW 225 10 min 0,000 mm 512 W/m 8,3 C 17,7 C 24,1 km/h (4 Bft) 100 %
06.05.2014 14:50 19,6 C 19,6 C 19,9 C 49 % 1012,2 hPa 0,0 l/m 14,5 km/h (3 Bft) SW 225 10 min 0,000 mm 413 W/m 8,6 C 16,9 C 27,4 km/h (4 Bft) 99 %
06.05.2014 15:00 19,5 C 19,5 C 19,6 C 49 % 1012,2 hPa 0,0 l/m 9,7 km/h (2 Bft) W-SW 247 10 min 0,356 mm 388 W/m 8,5 C 18,2 C 22,5 km/h (4 Bft) 100 %
06.05.2014 15:10 19,4 C 19,4 C 19,5 C 50 % 1012,1 hPa 0,0 l/m 8,0 km/h (2 Bft) W-SW 247 10 min 0,000 mm 297 W/m 8,7 C 18,7 C 22,5 km/h (4 Bft) 100 %
06.05.2014 15:20 19,3 C 19,3 C 19,5 C 49 % 1012,2 hPa 0,0 l/m 7,9 km/h (2 Bft) W-SW 255 10 min 0,000 mm 279 W/m 8,3 C 18,7 C 19,3 km/h (3 Bft) 97 %
06.05.2014 15:30 19,1 C 19,1 C 19,3 C 50 % 1012,2 hPa 0,0 l/m 14,7 km/h (3 Bft) W-SW 246 10 min 0,000 mm 214 W/m 8,4 C 16,2 C 29,0 km/h (5 Bft) 98 %
06.05.2014 15:40 18,9 C 18,9 C 19,1 C 50 % 1012,0 hPa 0,0 l/m 12,2 km/h (2 Bft) W-SW 253 10 min 0,000 mm 174 W/m 8,2 C 16,7 C 25,7 km/h (4 Bft) 97 %
06.05.2014 15:50 18,9 C 18,9 C 18,9 C 51 % 1011,8 hPa 0,0 l/m 7,5 km/h (2 Bft) W-SW 251 10 min 0,000 mm 200 W/m 8,5 C 18,4 C 17,7 km/h (3 Bft) 98 %
06.05.2014 16:00 19,0 C 18,9 C 19,0 C 51 % 1011,9 hPa 0,0 l/m 4,4 km/h (1 Bft) SW 215 10 min 0,178 mm 265 W/m 8,6 C 19,0 C 19,3 km/h (3 Bft) 97 %
06.05.2014 16:10 19,1 C 18,9 C 19,1 C 52 % 1011,8 hPa 0,0 l/m 4,7 km/h (1 Bft) W-NW 289 10 min 0,000 mm 225 W/m 9,0 C 19,1 C 14,5 km/h (3 Bft) 98 %
06.05.2014 16:20 19,1 C 19,1 C 19,1 C 52 % 1011,7 hPa 0,0 l/m 9,1 km/h (2 Bft) NW 309 10 min 0,000 mm 236 W/m 9,0 C 18,0 C 20,9 km/h (4 Bft) 98 %
06.05.2014 16:30 19,0 C 19,0 C 19,1 C 54 % 1011,5 hPa 0,0 l/m 7,7 km/h (2 Bft) W 277 10 min 0,000 mm 283 W/m 9,5 C 18,4 C 22,5 km/h (4 Bft) 97 %
06.05.2014 16:40 19,3 C 19,0 C 19,3 C 54 % 1011,4 hPa 0,0 l/m 4,7 km/h (1 Bft) W-SW 248 10 min 0,000 mm 304 W/m 9,8 C 19,3 C 17,7 km/h (3 Bft) 98 %
06.05.2014 16:50 19,4 C 19,3 C 19,4 C 53 % 1011,3 hPa 0,0 l/m 7,1 km/h (2 Bft) W 269 10 min 0,000 mm 216 W/m 9,6 C 19,1 C 19,3 km/h (3 Bft) 97 %
06.05.2014 17:00 19,3 C 19,3 C 19,4 C 53 % 1011,4 hPa 0,0 l/m 7,4 km/h (2 Bft) W-SW 255 10 min 0,000 mm 220 W/m 9,5 C 18,9 C 19,3 km/h (3 Bft) 98 %
06.05.2014 17:10 19,2 C 19,2 C 19,3 C 53 % 1011,4 hPa 0,0 l/m 10,7 km/h (2 Bft) W-SW 248 10 min 0,203 mm 269 W/m 9,4 C 17,5 C 22,5 km/h (4 Bft) 97 %
06.05.2014 17:20 19,7 C 19,2 C 19,7 C 53 % 1011,3 hPa 0,0 l/m 11,9 km/h (2 Bft) SW 233 10 min 0,000 mm 269 W/m 9,8 C 17,7 C 24,1 km/h (4 Bft) 98 %
06.05.2014 17:30 20,1 C 19,7 C 20,1 C 52 % 1011,3 hPa 0,0 l/m 10,7 km/h (2 Bft) SW 218 10 min 0,000 mm 287 W/m 9,9 C 18,5 C 24,1 km/h (4 Bft) 98 %
06.05.2014 17:40 20,0 C 20,0 C 20,1 C 50 % 1011,2 hPa 0,0 l/m 12,9 km/h (3 Bft) W 262 10 min 0,000 mm 274 W/m 9,3 C 17,8 C 30,6 km/h (5 Bft) 97 %
06.05.2014 17:50 19,8 C 19,8 C 20,0 C 49 % 1011,3 hPa 0,0 l/m 13,5 km/h (3 Bft) W-SW 251 10 min 0,000 mm 163 W/m 8,8 C 17,4 C 27,4 km/h (4 Bft) 98 %
06.05.2014 18:00 19,4 C 19,4 C 19,8 C 49 % 1011,4 hPa 0,0 l/m 14,6 km/h (3 Bft) NW 305 0 min 0,000 mm 132 W/m 8,4 C 16,6 C 35,4 km/h (5 Bft) 97 %
06.05.2014 18:10 19,1 C 19,1 C 19,4 C 50 % 1011,3 hPa 0,0 l/m 10,9 km/h (2 Bft) W 259 0 min 0,229 mm 104 W/m 8,4 C 17,3 C 29,0 km/h (5 Bft) 98 %
06.05.2014 18:20 18,8 C 18,8 C 19,1 C 51 % 1011,0 hPa 0,0 l/m 8,9 km/h (2 Bft) W 278 0 min 0,000 mm 102 W/m 8,4 C 17,7 C 25,7 km/h (4 Bft) 97 %
06.05.2014 18:30 18,7 C 18,7 C 18,8 C 52 % 1011,0 hPa 0,0 l/m 8,6 km/h (2 Bft) W-SW 257 0 min 0,000 mm 58 W/m 8,6 C 17,7 C 17,7 km/h (3 Bft) 97 %
06.05.2014 18:40 18,4 C 18,4 C 18,7 C 53 % 1011,1 hPa 0,0 l/m 6,2 km/h (2 Bft) W-SW 240 0 min 0,000 mm 79 W/m 8,6 C 18,4 C 19,3 km/h (3 Bft) 98 %
06.05.2014 18:50 18,2 C 18,2 C 18,4 C 52 % 1011,2 hPa 0,0 l/m 9,3 km/h (2 Bft) W-SW 240 0 min 0,000 mm 100 W/m 8,2 C 16,9 C 30,6 km/h (5 Bft) 97 %
06.05.2014 19:00 17,8 C 17,8 C 18,2 C 54 % 1011,2 hPa 0,0 l/m 9,3 km/h (2 Bft) S-SW 193 0 min 0,000 mm 58 W/m 8,4 C 16,5 C 24,1 km/h (4 Bft) 97 %
06.05.2014 19:10 17,6 C 17,6 C 17,8 C 55 % 1011,2 hPa 0,0 l/m 7,1 km/h (2 Bft) S-SW 197 0 min 0,102 mm 62 W/m 8,5 C 17,3 C 17,7 km/h (3 Bft) 97 %
06.05.2014 19:20 17,4 C 17,4 C 17,6 C 56 % 1011,1 hPa 0,0 l/m 7,2 km/h (2 Bft) S-SW 213 0 min 0,000 mm 39 W/m 8,5 C 17,0 C 14,5 km/h (3 Bft) 98 %
06.05.2014 19:30 17,2 C 17,2 C 17,4 C 57 % 1011,2 hPa 0,0 l/m 6,7 km/h (2 Bft) S-SW 207 0 min 0,000 mm 33 W/m 8,6 C 17,1 C 16,1 km/h (3 Bft) 98 %
06.05.2014 19:40 16,9 C 16,9 C 17,2 C 60 % 1011,2 hPa 0,0 l/m 3,1 km/h (1 Bft) S-SW 197 0 min 0,000 mm 21 W/m 9,1 C 16,9 C 9,7 km/h (2 Bft) 100 %
06.05.2014 19:50 16,5 C 16,5 C 16,9 C 62 % 1011,5 hPa 0,0 l/m 3,0 km/h (1 Bft) S 181 0 min 0,000 mm 14 W/m 9,2 C 16,5 C 9,7 km/h (2 Bft) 100 %
06.05.2014 20:00 16,1 C 16,1 C 16,5 C 63 % 1011,4 hPa 0,0 l/m 2,0 km/h (1 Bft) S 186 0 min 0,000 mm 12 W/m 9,1 C 16,1 C 9,7 km/h (2 Bft) 100 %
06.05.2014 20:10 15,9 C 15,9 C 16,1 C 63 % 1011,2 hPa 0,0 l/m 0,0 km/h (0 Bft) S 171 0 min 0,050 mm 9 W/m 8,9 C 15,9 C 3,2 km/h (1 Bft) 100 %
06.05.2014 20:20 15,9 C 15,9 C 15,9 C 63 % 1011,3 hPa 0,0 l/m 0,9 km/h (0 Bft) S-SO 160 0 min 0,000 mm 7 W/m 8,9 C 15,9 C 4,8 km/h (1 Bft) 99 %
06.05.2014 20:30 15,9 C 15,9 C 15,9 C 64 % 1011,4 hPa 0,0 l/m 1,7 km/h (1 Bft) S-SO 156 0 min 0,000 mm 7 W/m 9,1 C 15,9 C 6,4 km/h (2 Bft) 100 %
06.05.2014 20:40 15,8 C 15,8 C 15,9 C 65 % 1011,5 hPa 0,0 l/m 0,1 km/h (0 Bft) S 177 0 min 0,000 mm 5 W/m 9,2 C 15,8 C 3,2 km/h (1 Bft) 100 %
06.05.2014 20:50 15,7 C 15,7 C 15,8 C 66 % 1011,3 hPa 0,0 l/m 0,0 km/h (0 Bft) S 173 0 min 0,000 mm 0 W/m 9,4 C 15,7 C 1,6 km/h (1 Bft) 99 %
06.05.2014 21:00 15,6 C 15,6 C 15,7 C 66 % 1011,3 hPa 0,0 l/m 2,8 km/h (1 Bft) S 178 0 min 0,026 mm 0 W/m 9,3 C 15,6 C 6,4 km/h (2 Bft) 99 %
06.05.2014 21:10 15,4 C 15,4 C 15,6 C 66 % 1011,2 hPa 0,0 l/m 2,1 km/h (1 Bft) S 180 0 min 0,000 mm 0 W/m 9,1 C 15,4 C 6,4 km/h (2 Bft) 100 %
06.05.2014 21:20 15,2 C 15,2 C 15,4 C 66 % 1011,2 hPa 0,0 l/m 1,6 km/h (1 Bft) S-SO 157 0 min 0,000 mm 0 W/m 8,9 C 15,2 C 6,4 km/h (2 Bft) 99 %
06.05.2014 21:30 15,1 C 15,1 C 15,2 C 66 % 1011,3 hPa 0,0 l/m 1,6 km/h (1 Bft) S 180 0 min 0,000 mm 0 W/m 8,8 C 15,1 C 8,0 km/h (2 Bft) 100 %
06.05.2014 21:40 15,1 C 15,1 C 15,1 C 66 % 1011,4 hPa 0,0 l/m 1,6 km/h (1 Bft) S-SO 157 0 min 0,000 mm 0 W/m 8,8 C 15,1 C 6,4 km/h (2 Bft) 100 %
06.05.2014 21:50 15,1 C 15,1 C 15,1 C 67 % 1011,5 hPa 0,0 l/m 1,6 km/h (1 Bft) S-SO 157 0 min 0,000 mm 0 W/m 9,0 C 15,1 C 6,4 km/h (2 Bft) 100 %
06.05.2014 22:00 15,1 C 15,1 C 15,1 C 67 % 1011,3 hPa 0,0 l/m 0,0 km/h (0 Bft) S-SO 157 0 min 0,025 mm 0 W/m 9,0 C 15,1 C 1,6 km/h (1 Bft) 90 %
06.05.2014 22:10 14,8 C 14,8 C 15,1 C 68 % 1011,5 hPa 0,0 l/m 0,0 km/h (0 Bft) S-SO 157 0 min 0,000 mm 0 W/m 9,0 C 14,8 C 1,6 km/h (1 Bft) 99 %
06.05.2014 22:20 14,5 C 14,5 C 14,8 C 69 % 1011,3 hPa 0,0 l/m 0,0 km/h (0 Bft) S-SO 157 0 min 0,000 mm 0 W/m 8,9 C 14,5 C 1,6 km/h (1 Bft) 100 %
06.05.2014 22:30 14,3 C 14,3 C 14,5 C 69 % 1011,2 hPa 0,0 l/m 0,0 km/h (0 Bft) S-SO 157 0 min 0,000 mm 0 W/m 8,7 C 14,3 C 1,6 km/h (1 Bft) 100 %
06.05.2014 22:40 14,4 C 14,3 C 14,4 C 68 % 1011,1 hPa 0,0 l/m 1,6 km/h (1 Bft) S-SO 157 0 min 0,000 mm 0 W/m 8,6 C 14,4 C 6,4 km/h (2 Bft) 100 %
06.05.2014 22:50 14,6 C 14,4 C 14,6 C 67 % 1011,1 hPa 0,0 l/m 3,2 km/h (1 Bft) SO 135 0 min 0,000 mm 0 W/m 8,5 C 14,6 C 8,0 km/h (2 Bft) 100 %
06.05.2014 23:00 14,6 C 14,6 C 14,6 C 66 % 1011,0 hPa 0,0 l/m 1,6 km/h (1 Bft) S-SO 157 0 min 0,025 mm 0 W/m 8,3 C 14,6 C 8,0 km/h (2 Bft) 100 %
06.05.2014 23:10 14,4 C 14,4 C 14,6 C 66 % 1011,0 hPa 0,0 l/m 1,6 km/h (1 Bft) S-SO 157 0 min 0,000 mm 0 W/m 8,1 C 14,4 C 9,7 km/h (2 Bft) 100 %
06.05.2014 23:20 14,3 C 14,3 C 14,4 C 66 % 1011,0 hPa 0,0 l/m 3,2 km/h (1 Bft) S-SO 157 0 min 0,000 mm 0 W/m 8,0 C 14,3 C 8,0 km/h (2 Bft) 99 %
06.05.2014 23:30 14,3 C 14,3 C 14,4 C 66 % 1010,8 hPa 0,0 l/m 3,2 km/h (1 Bft) S-SO 157 0 min 0,000 mm 0 W/m 8,0 C 14,3 C 9,7 km/h (2 Bft) 100 %
06.05.2014 23:40 14,3 C 14,3 C 14,4 C 66 % 1010,8 hPa 0,0 l/m 4,8 km/h (1 Bft) S-SO 157 0 min 0,000 mm 0 W/m 8,0 C 14,3 C 11,3 km/h (2 Bft) 100 %
06.05.2014 23:50 14,2 C 14,2 C 14,3 C 66 % 1010,6 hPa 0,0 l/m 3,2 km/h (1 Bft) S-SO 157 0 min 0,000 mm 0 W/m 7,9 C 14,2 C 8,0 km/h (2 Bft) 100 %
_ Min-Zeit 06:10 06:10 06:20 14:10 23:50 - 00:00 - - - - - 06:10 06:10 04:10 07:00
Minimum _ 4,3 C 4,3 C 4,3 C 46 % 1010,6 hPa - 0,0 km/h (0 Bft) - - - - - 2,3 C 4,3 C 0,0 km/h (0 Bft) 87 %
_ Max-Zeit 12:50 12:50 12:50 05:00 00:00 00:00 14:30 - - 08:30 13:00 12:10 11:10 12:40 18:00 00:00
Maximum _ 21,1 C 20,8 C 21,1 C 87 % 1014,0 hPa 0,0 l/m 16,1 km/h
SW (3 Bft)
- - 10 min 0,406 mm 921 W/m 10,7 C 20,9 C 35,4 km/h
SW (5 Bft)
100 %
Durchschnitt _ 13,3 C 13,2 C 13,4 C 68 % 1012,1 hPa #0,0 l/m 3,7 km/h (1 Bft) W-SW - #9:30 h #3,022 mm 329 W/m 7,0 C 12,9 C 10,8 km/h (2 Bft) 98 %
PRIVATE WETTERSTATION BILLIGHEIM-ALLFELD - www.neckar-odenwald-wetter.de - Holger Sonntag